Regional Weather Roundup
Issued by NWS Newport/Morehead, NC

Current Version | Previous Version | Graphics & Text | Print | Product List | Glossary Off
Versions: 1 2 3 4 5 6 7 8 9 10 11 12 13 14 15 16 17 18 19 20 21 22 23 24 25 26 27 28 29 30 31 32 33 34 35 36 37 38 39 40 41 42 43 44 45 46 47 48 49 50

000
ASUS42 KMHX 032124
RWRMHX
WEATHER ROUNDUP FOR EASTERN NORTH CAROLINA
NATIONAL WEATHER SERVICE NEWPORT/MOREHEAD CITY NC
500 PM EDT SUN MAY 03 2015

NOTE: "FAIR" INDICATES FEW OR NO CLOUDS BELOW 12,000 FEET
WITH NO SIGNIFICANT WEATHER AND/OR OBSTRUCTIONS TO VISIBILITY

NCZ015>017-031-032-045>047-102-103-032200-
NORTH COAST

CITY           SKY/WX    TMP DP  RH WIND       PRES   REMARKS
EDENTON        MOSUNNY   78  46  32 CALM      30.15S
ELIZABETH CITY SUNNY     75  47  36 SW8       30.13F
KITTY HAWK     CLEAR     78  35  20 CALM      30.14S
MANTEO         SUNNY     73  50  45 S9        30.16S

$$

NCZ045>047-081-094-103-104-032200-
CENTRAL COAST

CITY           SKY/WX    TMP DP  RH WIND       PRES   REMARKS
FRISCO         SUNNY     67  56  67 SW7       30.17S
SWANQUARTER      N/A     77 N/A N/A S8        30.12S

$$

NCZ095-097-098-100-101-032200-
SOUTHERN COAST

CITY           SKY/WX    TMP DP  RH WIND       PRES   REMARKS
BEAUFORT       SUNNY     72  52  49 S12       30.17S
CEDAR ISLAND     N/A     77 N/A N/A SE8G14    30.21S
JACKSONVILLE   SUNNY     77  41  27 S9        30.15F
PINEY ISLAND   PTCLDY   N/A N/A N/A SE7       30.17S
WILMINGTON     SUNNY     76  41  28 S9        30.17S


$$

NCZ011>013-027>030-043-044-078>080-089-090>093-098-032200-
COASTAL PLAIN

CITY           SKY/WX    TMP DP  RH WIND       PRES   REMARKS
AHOSKIE        SUNNY     76  44  31 CALM      30.14S
CLINTON        SUNNY     79  45  30 N7        30.16S
ELIZABETHTOWN  SUNNY     80  39  23 NW3       30.15S
GOLDSBORO      MOSUNNY   79  44  29 CALM      30.13F
GREENVILLE     MOSUNNY   79  45  29 CALM      30.16F
HAVELOCK       CLOUDY    75  41  29 S8        30.17S
KENANSVILLE    MOSUNNY   77  37  23 CALM      30.16F
KINSTON        NOT AVBL
NEW BERN       PTSUNNY   79  44  28 SW5       30.16S
RICHLANDS      SUNNY     77  43  29 S10       30.16S
ROCKY MOUNT    MOSUNNY   78  46  32 S6        30.15S
WASHINGTON     SUNNY     78  44  30 W7        30.16S
WHITEVILLE     SUNNY     79  37  22 SW7       30.15S

$$

AMZ130-135-150-152-154-156-158-170-250-252-270-ANZ085-086-088-633-658-670-032200-
MARINE OBSERVATIONS

STATION/POSITION TIME  TEMP    WIND        PRES    WAVE   SWELL
                       AIR SEA DIR/SP/G            HT/PER HT/PER
                 (UTC) (F)     (DEG/KT/KT) (MB)    (FT/S) (FT/S)
CHESAPEAKE LIGHT 2100   69     170/ 10/ 12 1020.9
64 E VA BEACH    2050   63 63  210/  4/  4 1020.4    5/13   5/13
DUCK             2100   74 54  200/  6/  8 1019.7
2 E DUCK         2011      60                N/A     5/10   3/11
OREGON INLET     2100   67 61  180/  8/  9 1021.2
13E OREGON INLT  2100      56                N/A     5/11   3/11
HATTERAS CG      2012   73 63  250/  5/  7 1021.1
DIAMOND BUOY     2050   65 62  240/  4/  6 1021.8    5/11   5/11
CAPE LOOKOUT     2100   71     210/  9/ 12 1021.6
BEAUFORT LAB     2012   71 64  210/ 10/ 14 1020.7
27 SE WRIGHTSVLE 2100   69 73  190/  4/  6   N/A
5 SE WRIGHTSVLE  2008   70 69  190/  8/ 10 1022.1
225 S CAPE HAT   2050   69 70   30/ 14/ 17 1022.1    9/11   7/11
41 SE CHARLESTON 2050   71 77  120/  2/  4 1021.8    3/11   2/11

$$



USA.gov is the U.S. government's official web portal to all federal, state and local government web resources and services.